Location: Pedholt
(56.0260°N, 10.2097°E)
Time: 19:10:56
(UTC+00:00)

Tiros 1 - Pass Details

Date: 03 August 2021
Orbit: 630 x 663 km, 48.4° (Epoch: 19 September)

Event Time Altitude Azimuth Distance (km) Brightness Sun altitude
Rises 22:19:36 0° 269° (W) 2,967 10.8 -15.4°
Reaches altitude 10° 22:23:22 10° 239° (WSW) 2,044 9.6 -15.6°
Enters shadow 22:25:02 12° 218° (SW) 1,904 9.2 -15.6°
Maximum altitude 22:25:08 12° 217° (SW) 1,903 - -15.6°
Drops below altitude 10° 22:26:55 10° 194° (SSW) 2,031 - -15.7°
Sets 22:30:38 0° 164° (SSE) 2,928 - -15.8°
